DC4THF-13 Weather Reports


time (UTC)temp
C
wind
direction
speed
KPH
gust
KPH
rain 1hr
cm
rain 24hr
cm
rain mn
cm
humidity
%
barometer
mb
20260507171301 8 0.0 0.0 0.03 0.05 0.05 82 1011.6
20260507170258 8 0.0 0.0 0.03 0.05 0.05 82 1011.6
20260507165254 8 0.0 0.0 0.03 0.05 0.05 82 1011.5
20260507164250 8 0.0 1.6 0.00 0.03 0.03 82 1011.4
20260507163246 8 135 0.0 3.2 0.00 0.03 0.03 81 1011.4
20260507162242 8 0.0 1.6 0.03 0.03 0.03 81 1011.4
20260507161239 8 90 0.0 3.2 0.03 0.03 0.03 80 1011.5
20260507160236 8 90 0.0 3.2 0.03 0.03 0.03 80 1011.5
20260507155232 9 122 0.0 3.2 0.03 0.03 0.03 79 1011.4
20260507154259 9 135 0.0 3.2 0.03 0.03 0.03 77 1011.2
20260507153256 9 0.0 0.0 0.03 0.03 0.03 77 1011.1
20260507152253 9 0.0 0.0 0.00 0.00 0.00 76 1011.0
20260507151250 9 0 0.0 3.2 0.00 0.00 0.00 76 1011.1
20260507150246 9 23 0.0 3.2 0.00 0.00 0.00 76 1010.9
20260507145243 9 0 1.6 3.2 0.00 0.00 0.00 75 1010.9
20260507144240 9 330 3.2 6.4 0.00 0.00 0.00 75 1010.9
20260507143238 9 0 0.0 3.2 0.00 0.00 0.00 74 1010.8
20260507142233 10 334 3.2 6.4 0.00 0.00 0.00 73 1010.8
20260507141230 10 129 3.2 4.8 0.00 0.00 0.00 74 1010.7
20260507140227 10 53 1.6 4.8 0.00 0.00 0.00 73 1010.6
20260507135223 10 315 3.2 6.4 0.00 0.00 0.00 73 1010.6
20260507134220 10 10 3.2 8.0 0.00 0.00 0.00 72 1010.6
20260507133217 10 344 3.2 6.4 0.00 0.00 0.00 73 1010.5
20260507132314 9 55 1.6 4.8 0.00 0.00 0.00 75 1010.5
20260507131311 8 337 6.4 14.5 0.00 0.00 0.00 74 1010.5
20260507130307 8 349 4.8 12.9 0.00 0.00 0.00 74 1010.4
20260507125306 8 351 8.0 14.5 0.00 0.00 0.00 73 1010.3
20260507124301 9 16 6.4 12.9 0.00 0.00 0.00 72 1010.2
20260507123258 9 0 4.8 6.4 0.00 0.00 0.00 72 1010.1
20260507122254 9 13 4.8 11.3 0.00 0.00 0.00 72 1009.9
20260507121251 9 6 4.8 9.7 0.00 0.00 0.00 73 1010.0
20260507120248 9 337 6.4 14.5 0.00 0.00 0.00 73 1009.9
20260507115245 9 344 6.4 9.7 0.00 0.00 0.00 73 1010.0
20260507114241 9 300 3.2 4.8 0.00 0.00 0.00 73 1009.8
20260507113237 9 353 3.2 12.9 0.00 0.00 0.00 74 1009.7
20260507112233 8 315 4.8 8.0 0.00 0.00 0.00 74 1009.6
20260507111259 8 22 4.8 12.9 0.00 0.00 0.00 74 1009.6
20260507110255 8 39 3.2 6.4 0.00 0.00 0.00 75 1009.6
20260507105251 8 1 4.8 9.7 0.00 0.00 0.00 75 1009.7
20260507104248 8 336 6.4 12.9 0.00 0.00 0.00 74 1009.5
20260507103245 8 313 3.2 6.4 0.00 0.00 0.00 74 1009.4
20260507102240 9 311 4.8 11.3 0.00 0.00 0.00 73 1009.3
20260507101236 9 339 4.8 6.4 0.00 0.00 0.00 74 1009.2
20260507100232 8 80 3.2 6.4 0.00 0.00 0.00 74 1009.1
20260507095228 8 15 4.8 12.9 0.00 0.00 0.00 74 1009.0
20260507094224 8 0 3.2 6.4 0.00 0.00 0.00 73 1009.0
20260507093220 8 0 3.2 4.8 0.00 0.00 0.00 74 1008.8
20260507092218 8 55 3.2 8.0 0.00 0.00 0.00 75 1008.7
20260507091314 8 31 4.8 9.7 0.00 0.00 0.00 74 1008.6
20260507090311 8 340 6.4 9.7 0.00 0.03 0.00 75 1008.5
20260507085308 8 1 8.0 14.5 0.00 0.05 0.00 76 1008.4
20260507084305 8 0 4.8 14.5 0.00 0.05 0.00 76 1008.3
20260507083301 8 351 6.4 12.9 0.00 0.05 0.00 77 1008.2
20260507082257 8 347 6.4 11.3 0.00 0.05 0.00 78 1008.1
20260507081253 8 347 4.8 11.3 0.00 0.10 0.00 78 1007.8
20260507080249 8 339 6.4 12.9 0.00 0.10 0.00 79 1007.7
20260507075246 8 345 3.2 8.0 0.00 0.10 0.00 80 1007.7
20260507074242 8 354 6.4 11.3 0.00 0.13 0.00 80 1007.6
20260507073238 7 0 3.2 8.0 0.00 0.13 0.00 80 1007.5
20260507072234 7 350 4.8 9.7 0.00 0.13 0.00 80 1007.4
20260507071231 7 9 4.8 11.3 0.00 0.15 0.00 80 1007.4
20260507070228 7 345 6.4 14.5 0.00 0.18 0.00 80 1007.4
20260507065224 7 349 6.4 16.1 0.00 0.18 0.00 80 1007.3
20260507064221 7 302 4.8 11.3 0.00 0.20 0.00 80 1007.2
20260507063218 7 342 4.8 12.9 0.00 0.23 0.00 80 1007.1
20260507062315 7 0 3.2 11.3 0.00 0.28 0.00 80 1007.1
20260507061311 7 337 6.4 17.7 0.00 0.30 0.00 80 1006.8
20260507060308 7 10 4.8 9.7 0.00 0.36 0.00 80 1006.7
20260507055306 7 356 3.2 8.0 0.00 0.43 0.00 80 1006.5
20260507054302 7 326 3.2 6.4 0.00 0.46 0.00 80 1006.4
20260507053258 7 339 4.8 6.4 0.00 0.48 0.00 80 1006.4
20260507052255 7 90 1.6 6.4 0.00 0.51 0.00 81 1006.3
20260507051252 7 39 4.8 8.0 0.00 0.53 0.00 81 1006.3
20260507050249 7 335 4.8 8.0 0.00 0.56 0.00 87 1006.2
20260507045246 7 334 3.2 6.4 0.00 0.61 0.00 88 1006.2
20260507044242 7 316 4.8 9.7 0.00 0.66 0.00 88 1006.0
20260507043239 7 0.0 1.6 0.00 0.66 0.00 88 1006.0
20260507042236 7 0 3.2 6.4 0.00 0.69 0.00 88 1006.0
20260507041233 7 344 4.8 11.3 0.00 0.71 0.00 88 1005.9
20260507040230 7 350 4.8 9.7 0.00 0.71 0.00 88 1005.7
20260507035227 7 350 3.2 9.7 0.00 0.71 0.00 88 1005.7
20260507034223 7 27 1.6 4.8 0.00 0.76 0.00 88 1005.7
20260507033220 7 353 4.8 12.9 0.00 0.79 0.00 88 1005.4
20260507032217 7 0 4.8 8.0 0.00 0.79 0.00 88 1005.5
20260507031314 7 17 3.2 6.4 0.00 0.81 0.00 88 1005.5
20260507030311 7 354 6.4 12.9 0.00 0.84 0.00 88 1005.5
20260507025308 7 343 6.4 12.9 0.00 0.84 0.00 88 1005.4
20260507024304 7 16 3.2 8.0 0.00 0.86 0.00 87 1005.2
20260507023300 7 22 1.6 8.0 0.00 0.89 0.00 87 1005.2
20260507022257 7 19 1.6 9.7 0.00 0.94 0.00 87 1005.2
20260507021252 7 0 0.0 6.4 0.00 0.99 0.00 87 1005.1
20260507020249 7 43 3.2 6.4 0.00 1.02 0.00 87 1005.1
20260507015245 7 307 3.2 6.4 0.00 1.04 0.00 87 1005.1
20260507014241 7 347 4.8 9.7 0.00 1.09 0.00 86 1004.8
20260507013238 7 327 4.8 9.7 0.00 1.09 0.00 86 1004.8
20260507012234 7 333 6.4 11.3 0.00 1.14 0.00 86 1004.8
20260507011230 7 336 6.4 14.5 0.00 1.17 0.00 86 1004.7
20260507010227 7 329 8.0 12.9 0.00 1.17 0.00 86 1004.7
20260507005224 7 340 6.4 11.3 0.00 1.19 0.00 82 1004.7
20260507004221 7 322 6.4 12.9 0.00 1.27 0.00 82 1004.5
20260507003217 7 11 4.8 8.0 0.00 1.32 0.00 81 1004.2
20260507002315 8 0 6.4 14.5 0.00 1.35 0.00 81 1004.2
20260507001311 8 24 6.4 12.9 0.00 1.37 0.00 81 1004.0
20260507000308 8 323 8.0 14.5 0.00 1.42 0.00 81 1003.9
20260506235306 9 333 4.8 12.9 0.00 1.45 0.00 81 1003.9
20260506234301 9 340 4.8 9.7 0.00 1.45 0.00 80 1003.8
20260506233258 9 158 4.8 8.0 0.00 1.47 0.00 80 1003.8
20260506232255 10 295 8.0 17.7 0.00 1.47 0.00 80 1003.8
20260506231252 10 314 6.4 14.5 0.00 1.47 0.00 80 1003.8
20260506230248 10 352 4.8 11.3 0.00 1.47 0.00 80 1003.7
20260506225245 10 339 6.4 12.9 0.00 1.47 0.00 80 1003.7
20260506224242 10 11 4.8 8.0 0.00 1.50 0.00 80 1003.6
20260506223239 10 329 4.8 11.3 0.00 1.50 0.00 80 1003.6
20260506222236 10 328 3.2 6.4 0.00 1.50 0.00 80 1003.6
20260506221232 10 333 4.8 9.7 0.00 1.50 0.00 80 1003.5
20260506220229 10 315 6.4 11.3 0.00 1.50 0.00 81 1003.5
20260506215226 10 338 6.4 12.9 0.00 1.50 1.50 83 1003.5
20260506214223 10 351 3.2 9.7 0.00 1.50 1.50 83 1003.5
20260506213220 10 0 3.2 6.4 0.00 1.50 1.50 84 1003.3
20260506212216 10 0 1.6 4.8 0.00 1.50 1.50 84 1003.3
20260506211314 10 0 3.2 4.8 0.00 1.50 1.50 83 1003.2
20260506210310 10 350 3.2 8.0 0.00 1.50 1.50 83 1003.3
20260506205307 10 329 1.6 3.2 0.00 1.50 1.50 83 1003.3
20260506204304 10 17 3.2 6.4 0.00 1.50 1.50 83 1003.2
20260506203300 10 0 3.2 6.4 0.00 1.50 1.50 82 1003.0
20260506202257 10 328 1.6 6.4 0.00 1.50 1.50 82 1003.2
20260506201253 10 6 3.2 8.0 0.00 1.50 1.50 81 1003.0
20260506200248 10 334 6.4 12.9 0.00 1.50 1.50 81 1002.8
20260506195245 10 6 4.8 12.9 0.00 1.50 1.50 83 1003.0
20260506194241 10 10 3.2 6.4 0.00 1.50 1.50 83 1002.9
20260506193237 10 328 3.2 11.3 0.00 1.50 1.50 83 1002.8
20260506192233 10 333 3.2 6.4 0.00 1.50 1.50 83 1002.7
20260506191301 10 328 3.2 6.4 0.00 1.50 1.50 82 1002.6
20260506190256 11 14 3.2 6.4 0.00 1.50 1.50 82 1002.4
20260506185253 11 354 4.8 9.7 0.00 1.50 1.50 81 1002.4
20260506184249 11 296 6.4 12.9 0.00 1.50 1.50 81 1002.2
20260506183244 12 346 6.4 16.1 0.00 1.50 1.50 81 1002.2
20260506182241 12 306 4.8 12.9 0.00 1.50 1.50 81 1002.0
20260506181237 12 330 3.2 6.4 0.00 1.50 1.50 81 1001.9
20260506180233 12 355 1.6 6.4 0.00 1.50 1.50 81 1001.8
20260506175229 12 314 6.4 12.9 0.00 1.50 1.50 78 1001.7
20260506174225 12 349 4.8 11.3 0.00 1.50 1.50 78 1001.5
20260506173222 12 16 4.8 9.7 0.00 1.50 1.50 77 1001.4